Time,TemperatureF,DewpointF,PressureIn,WindDirection,WindDirectionDegrees,WindSpeedMPH,WindSpeedGustMPH,Humidity,HourlyPrecipIn,Conditions,Clouds,dailyrainin,SolarRadiationWatts/m^2,SoftwareType,DateUTC
2013-08-24 00:08:00,57.3,54.0,30.08,SE,132,4.0,6.0,89,0.00,,,0.00,0,weatherlink.com 1.10,2013-08-24 05:08:00,
2013-08-24 00:23:00,57.3,54.0,30.08,SE,132,2.0,4.0,89,0.00,,,0.00,0,weatherlink.com 1.10,2013-08-24 05:23:00,
2013-08-24 00:38:00,56.9,54.0,30.08,SE,132,3.0,7.0,89,0.00,,,0.00,0,weatherlink.com 1.10,2013-08-24 05:38:00,
2013-08-24 00:53:00,56.9,53.0,30.08,SE,132,5.0,7.0,88,0.00,,,0.00,0,weatherlink.com 1.10,2013-08-24 05:53:00,
2013-08-24 01:08:00,56.8,53.0,30.09,SE,132,2.0,4.0,88,0.00,,,0.00,0,weatherlink.com 1.10,2013-08-24 06:08:00,
2013-08-24 01:23:00,56.6,53.0,30.09,SE,132,0.0,1.0,88,0.00,,,0.00,0,weatherlink.com 1.10,2013-08-24 06:23:00,
2013-08-24 01:38:00,56.3,53.0,30.09,SE,132,0.0,0.0,88,0.00,,,0.00,0,weatherlink.com 1.10,2013-08-24 06:38:00,
2013-08-24 01:53:00,56.1,53.0,30.09,SE,132,2.0,2.0,88,0.00,,,0.00,0,weatherlink.com 1.10,2013-08-24 06:53:00,
2013-08-24 02:08:00,55.7,52.0,30.09,SE,132,1.0,2.0,88,0.00,,,0.00,0,weatherlink.com 1.10,2013-08-24 07:08:00,
2013-08-24 02:23:00,54.7,52.0,30.09,SE,132,2.0,2.0,89,0.00,,,0.00,0,weatherlink.com 1.10,2013-08-24 07:23:00,
2013-08-24 02:38:00,53.8,51.0,30.09,SE,132,5.0,6.0,91,0.00,,,0.00,0,weatherlink.com 1.10,2013-08-24 07:38:00,
2013-08-24 02:53:00,54.1,52.0,30.10,SE,132,3.0,5.0,91,0.00,,,0.00,0,weatherlink.com 1.10,2013-08-24 07:53:00,
2013-08-24 03:08:00,54.1,52.0,30.11,SE,132,1.0,3.0,92,0.00,,,0.00,0,weatherlink.com 1.10,2013-08-24 08:08:00,
2013-08-24 03:23:00,53.9,51.0,30.10,SE,132,4.0,4.0,91,0.00,,,0.00,0,weatherlink.com 1.10,2013-08-24 08:23:00,
2013-08-24 03:38:00,53.2,51.0,30.11,SE,132,5.0,6.0,92,0.00,,,0.00,0,weatherlink.com 1.10,2013-08-24 08:38:00,
2013-08-24 03:53:00,53.8,52.0,30.11,SE,132,2.0,6.0,93,0.00,,,0.00,0,weatherlink.com 1.10,2013-08-24 08:53:00,
2013-08-24 04:08:00,53.7,52.0,30.11,SE,132,0.0,3.0,92,0.00,,,0.00,0,weatherlink.com 1.10,2013-08-24 09:08:00,
2013-08-24 04:23:00,53.4,52.0,30.12,SE,132,2.0,3.0,93,0.00,,,0.00,0,weatherlink.com 1.10,2013-08-24 09:23:00,
2013-08-24 04:38:00,53.4,52.0,30.12,SE,132,4.0,4.0,93,0.00,,,0.00,0,weatherlink.com 1.10,2013-08-24 09:38:00,
2013-08-24 04:53:00,53.2,51.0,30.13,SE,132,2.0,4.0,93,0.00,,,0.00,0,weatherlink.com 1.10,2013-08-24 09:53:00,
2013-08-24 05:08:00,53.4,52.0,30.12,SE,132,1.0,3.0,94,0.00,,,0.00,0,weatherlink.com 1.10,2013-08-24 10:08:00,
2013-08-24 05:23:00,53.4,52.0,30.13,SE,132,0.0,2.0,94,0.00,,,0.00,0,weatherlink.com 1.10,2013-08-24 10:23:00,
2013-08-24 05:38:00,53.7,52.0,30.13,SE,132,0.0,2.0,94,0.00,,,0.00,0,weatherlink.com 1.10,2013-08-24 10:38:00,
2013-08-24 05:53:00,53.9,52.0,30.13,SE,132,2.0,3.0,94,0.00,,,0.00,0,weatherlink.com 1.10,2013-08-24 10:53:00,
2013-08-24 06:08:00,53.9,52.0,30.13,SE,132,3.0,4.0,94,0.00,,,0.00,0,weatherlink.com 1.10,2013-08-24 11:08:00,
2013-08-24 06:23:00,54.3,53.0,30.14,SE,132,2.0,4.0,95,0.00,,,0.00,7,weatherlink.com 1.10,2013-08-24 11:23:00,
2013-08-24 06:38:00,54.5,53.0,30.14,SE,132,1.0,4.0,95,0.00,,,0.00,23,weatherlink.com 1.10,2013-08-24 11:38:00,
2013-08-24 06:53:00,55.1,54.0,30.15,SE,132,2.0,3.0,95,0.00,,,0.00,51,weatherlink.com 1.10,2013-08-24 11:53:00,
2013-08-24 07:08:00,56.0,55.0,30.15,SE,132,2.0,4.0,95,0.00,,,0.00,39,weatherlink.com 1.10,2013-08-24 12:08:00,
2013-08-24 07:23:00,57.2,56.0,30.15,SE,132,1.0,4.0,96,0.00,,,0.00,125,weatherlink.com 1.10,2013-08-24 12:23:00,
2013-08-24 07:38:00,58.7,58.0,30.15,SE,132,2.0,4.0,96,0.00,,,0.00,158,weatherlink.com 1.10,2013-08-24 12:38:00,
2013-08-24 07:54:00,60.4,59.0,30.16,SE,132,4.0,7.0,95,0.00,,,0.00,197,weatherlink.com 1.10,2013-08-24 12:54:00,
2013-08-24 08:09:00,61.8,60.0,30.16,SE,135,6.0,8.0,94,0.00,,,0.00,246,weatherlink.com 1.10,2013-08-24 13:09:00,
2013-08-24 08:24:00,63.3,61.0,30.16,SSE,148,6.0,9.0,93,0.00,,,0.00,281,weatherlink.com 1.10,2013-08-24 13:24:00,
2013-08-24 08:39:00,64.8,62.0,30.16,SE,139,6.0,9.0,91,0.00,,,0.00,323,weatherlink.com 1.10,2013-08-24 13:39:00,
2013-08-24 08:54:00,66.1,63.0,30.16,SE,144,4.0,8.0,88,0.00,,,0.00,367,weatherlink.com 1.10,2013-08-24 13:54:00,
2013-08-24 09:09:00,67.9,64.0,30.16,SE,142,6.0,6.0,88,0.00,,,0.00,411,weatherlink.com 1.10,2013-08-24 14:09:00,
2013-08-24 09:24:00,69.5,65.0,30.15,SSE,156,6.0,7.0,85,0.00,,,0.00,454,weatherlink.com 1.10,2013-08-24 14:24:00,
2013-08-24 09:39:00,71.3,66.0,30.15,South,177,8.0,8.0,83,0.00,,,0.00,496,weatherlink.com 1.10,2013-08-24 14:39:00,
2013-08-24 09:54:00,72.6,66.0,30.15,South,176,7.0,10.0,80,0.00,,,0.00,533,weatherlink.com 1.10,2013-08-24 14:54:00,
2013-08-24 10:09:00,73.5,67.0,30.15,South,174,6.0,12.0,79,0.00,,,0.00,573,weatherlink.com 1.10,2013-08-24 15:09:00,
2013-08-24 10:25:00,74.7,68.0,30.15,South,176,9.0,12.0,80,0.00,,,0.00,599,weatherlink.com 1.10,2013-08-24 15:25:00,
2013-08-24 10:40:00,75.5,69.0,30.15,SE,142,10.0,11.0,81,0.00,,,0.00,631,weatherlink.com 1.10,2013-08-24 15:40:00,
2013-08-24 10:55:00,75.8,68.0,30.15,SSE,166,9.0,13.0,77,0.00,,,0.00,659,weatherlink.com 1.10,2013-08-24 15:55:00,
2013-08-24 11:10:00,76.6,69.0,30.15,South,169,8.0,11.0,76,0.00,,,0.00,668,weatherlink.com 1.10,2013-08-24 16:10:00,
2013-08-24 11:25:00,76.6,68.0,30.15,SSW,196,12.0,15.0,75,0.00,,,0.00,710,weatherlink.com 1.10,2013-08-24 16:25:00,
2013-08-24 11:40:00,76.9,68.0,30.15,South,173,8.0,12.0,74,0.00,,,0.00,698,weatherlink.com 1.10,2013-08-24 16:40:00,
2013-08-24 11:55:00,77.7,70.0,30.15,SSE,161,8.0,12.0,77,0.00,,,0.00,842,weatherlink.com 1.10,2013-08-24 16:55:00,
2013-08-24 12:10:00,77.9,69.0,30.14,South,180,10.0,13.0,74,0.00,,,0.00,438,weatherlink.com 1.10,2013-08-24 17:10:00,
2013-08-24 12:25:00,78.0,70.0,30.13,South,190,9.0,13.0,75,0.00,,,0.00,800,weatherlink.com 1.10,2013-08-24 17:25:00,
2013-08-24 12:40:00,78.7,70.0,30.13,SSE,159,9.0,13.0,75,0.00,,,0.00,763,weatherlink.com 1.10,2013-08-24 17:40:00,
2013-08-24 12:55:00,78.7,70.0,30.13,South,177,7.0,12.0,74,0.00,,,0.00,640,weatherlink.com 1.10,2013-08-24 17:55:00,
2013-08-24 13:10:00,79.5,70.0,30.12,South,190,9.0,11.0,73,0.00,,,0.00,768,weatherlink.com 1.10,2013-08-24 18:10:00,
2013-08-24 13:25:00,79.9,72.0,30.12,South,176,7.0,11.0,76,0.00,,,0.00,849,weatherlink.com 1.10,2013-08-24 18:25:00,
2013-08-24 13:40:00,80.5,71.0,30.12,SSE,166,4.0,11.0,72,0.00,,,0.00,782,weatherlink.com 1.10,2013-08-24 18:40:00,
2013-08-24 13:55:00,80.7,71.0,30.12,SSW,208,8.0,11.0,72,0.00,,,0.00,837,weatherlink.com 1.10,2013-08-24 18:55:00,
2013-08-24 14:10:00,80.2,71.0,30.11,South,185,9.0,14.0,74,0.00,,,0.00,789,weatherlink.com 1.10,2013-08-24 19:10:00,
2013-08-24 14:25:00,80.5,70.0,30.11,SSE,168,9.0,12.0,71,0.00,,,0.00,763,weatherlink.com 1.10,2013-08-24 19:25:00,
2013-08-24 14:40:00,81.0,71.0,30.10,South,180,6.0,11.0,72,0.00,,,0.00,763,weatherlink.com 1.10,2013-08-24 19:40:00,
2013-08-24 14:55:00,81.1,71.0,30.10,South,179,9.0,11.0,71,0.00,,,0.00,661,weatherlink.com 1.10,2013-08-24 19:55:00,
2013-08-24 15:10:00,80.9,69.0,30.09,South,170,8.0,12.0,68,0.00,,,0.00,694,weatherlink.com 1.10,2013-08-24 20:10:00,
2013-08-24 15:25:00,81.3,71.0,30.09,SSW,198,8.0,11.0,71,0.00,,,0.00,664,weatherlink.com 1.10,2013-08-24 20:25:00,
2013-08-24 15:40:00,81.5,71.0,30.09,South,184,4.0,10.0,71,0.00,,,0.00,622,weatherlink.com 1.10,2013-08-24 20:40:00,
2013-08-24 15:55:00,81.6,71.0,30.08,SSW,192,6.0,11.0,71,0.00,,,0.00,592,weatherlink.com 1.10,2013-08-24 20:55:00,
2013-08-24 16:10:00,81.4,71.0,30.08,SSE,165,6.0,12.0,70,0.00,,,0.00,571,weatherlink.com 1.10,2013-08-24 21:10:00,
2013-08-24 16:25:00,81.4,71.0,30.07,South,188,9.0,11.0,70,0.00,,,0.00,485,weatherlink.com 1.10,2013-08-24 21:25:00,
2013-08-24 16:40:00,80.4,70.0,30.07,South,175,6.0,10.0,71,0.00,,,0.00,366,weatherlink.com 1.10,2013-08-24 21:40:00,
2013-08-24 16:55:00,80.2,72.0,30.07,SSE,160,7.0,11.0,75,0.00,,,0.00,285,weatherlink.com 1.10,2013-08-24 21:55:00,
2013-08-24 17:10:00,80.1,72.0,30.06,SSE,153,6.0,10.0,75,0.00,,,0.00,415,weatherlink.com 1.10,2013-08-24 22:10:00,
2013-08-24 17:25:00,80.6,72.0,30.06,SSE,161,7.0,11.0,75,0.00,,,0.00,343,weatherlink.com 1.10,2013-08-24 22:25:00,
2013-08-24 17:40:00,79.6,71.0,30.06,SSE,157,6.0,10.0,74,0.00,,,0.00,135,weatherlink.com 1.10,2013-08-24 22:40:00,
2013-08-24 17:55:00,78.2,70.0,30.06,SSE,160,7.0,10.0,77,0.00,,,0.00,250,weatherlink.com 1.10,2013-08-24 22:55:00,
2013-08-24 18:10:00,78.6,71.0,30.06,SSE,158,6.0,11.0,77,0.00,,,0.00,209,weatherlink.com 1.10,2013-08-24 23:10:00,
2013-08-24 18:25:00,78.5,71.0,30.06,SSE,154,6.0,9.0,77,0.00,,,0.00,160,weatherlink.com 1.10,2013-08-24 23:25:00,
2013-08-24 18:40:00,77.7,71.0,30.06,SSE,156,7.0,8.0,79,0.00,,,0.00,84,weatherlink.com 1.10,2013-08-24 23:40:00,
2013-08-24 18:55:00,76.2,70.0,30.06,SSE,155,5.0,8.0,81,0.00,,,0.00,35,weatherlink.com 1.10,2013-08-24 23:55:00,
2013-08-24 19:10:00,74.9,69.0,30.06,SSE,155,5.0,6.0,82,0.00,,,0.00,14,weatherlink.com 1.10,2013-08-25 00:10:00,
2013-08-24 19:25:00,73.8,69.0,30.07,SSE,155,5.0,7.0,84,0.00,,,0.00,18,weatherlink.com 1.10,2013-08-25 00:25:00,
2013-08-24 19:40:00,72.7,68.0,30.07,SSE,155,3.0,6.0,86,0.00,,,0.00,5,weatherlink.com 1.10,2013-08-25 00:40:00,
2013-08-24 19:55:00,71.6,68.0,30.07,SSE,155,3.0,5.0,87,0.00,,,0.00,0,weatherlink.com 1.10,2013-08-25 00:55:00,
2013-08-24 20:10:00,70.6,67.0,30.07,SSE,155,4.0,6.0,89,0.00,,,0.00,0,weatherlink.com 1.10,2013-08-25 01:10:00,
2013-08-24 20:25:00,70.3,67.0,30.07,SSE,155,4.0,5.0,89,0.00,,,0.00,0,weatherlink.com 1.10,2013-08-25 01:25:00,
2013-08-24 20:41:00,69.9,67.0,30.07,SE,136,5.0,7.0,90,0.00,,,0.00,0,weatherlink.com 1.10,2013-08-25 01:41:00,
2013-08-24 20:56:00,69.5,67.0,30.07,SE,136,3.0,6.0,90,0.00,,,0.00,0,weatherlink.com 1.10,2013-08-25 01:56:00,
2013-08-24 21:11:00,70.1,67.0,30.07,SE,142,7.0,9.0,90,0.00,,,0.00,0,weatherlink.com 1.10,2013-08-25 02:11:00,
2013-08-24 21:26:00,71.0,68.0,30.07,SE,146,5.0,10.0,89,0.00,,,0.00,0,weatherlink.com 1.10,2013-08-25 02:26:00,
2013-08-24 21:41:00,71.0,67.0,30.08,SSE,148,6.0,8.0,88,0.00,,,0.00,0,weatherlink.com 1.10,2013-08-25 02:41:00,
2013-08-24 21:56:00,70.1,67.0,30.09,SSE,148,4.0,6.0,89,0.00,,,0.00,0,weatherlink.com 1.10,2013-08-25 02:56:00,
2013-08-24 22:11:00,69.3,67.0,30.09,SSE,148,3.0,6.0,91,0.00,,,0.00,0,weatherlink.com 1.10,2013-08-25 03:11:00,
2013-08-24 22:26:00,69.1,67.0,30.08,SSE,148,2.0,4.0,92,0.00,,,0.00,0,weatherlink.com 1.10,2013-08-25 03:26:00,
2013-08-24 22:41:00,68.3,66.0,30.08,SSE,148,2.0,5.0,92,0.00,,,0.00,0,weatherlink.com 1.10,2013-08-25 03:41:00,
2013-08-24 22:56:00,67.6,66.0,30.08,SSE,148,4.0,6.0,93,0.00,,,0.00,0,weatherlink.com 1.10,2013-08-25 03:56:00,
2013-08-24 23:11:00,67.9,66.0,30.08,SSE,166,4.0,6.0,94,0.00,,,0.00,0,weatherlink.com 1.10,2013-08-25 04:11:00,
2013-08-24 23:26:00,69.2,68.0,30.08,South,169,6.0,9.0,94,0.00,,,0.00,0,weatherlink.com 1.10,2013-08-25 04:26:00,
2013-08-24 23:41:00,69.6,67.0,30.08,South,175,7.0,9.0,92,0.00,,,0.00,0,weatherlink.com 1.10,2013-08-25 04:41:00,
2013-08-24 23:56:00,70.0,67.0,30.07,South,175,6.0,10.0,91,0.00,,,0.00,0,weatherlink.com 1.10,2013-08-25 04:56:00,